Time[GMT],air_temperature[C](-3m),wind_speed[m/s](-4m),wind_gust[m/s](-4m),visibility[m](-3m),barometric_pressure[millibars](-3m),wind_2_direction[degrees_true](-4m),wind_2_gust[m/s](-4m),wind_2_gust_1s[m/s](-4m),wind_2_min[m/s](-4m),wind_2_percent_good[1](-4m),wind_2_speed[m/s](-4m),wind_direction[degrees_true](-4m),wind_gust_1s[m/s](-4m),wind_min[m/s](-4m)
2009-03-22 16:00,1.5,,,2966,1020.30,227.50,5.70,6.47,3.02,1.00,4.89,,,
2009-03-22 17:00,1.9,,,2942,1019.57,229.20,6.95,7.65,3.45,1.00,5.73,,,
2009-03-22 18:00,2.7,,,2966,1018.70,237.70,7.64,8.44,3.47,1.00,6.42,,,
2009-03-22 19:00,2.9,,,2966,1018.34,251.30,8.75,9.36,4.65,1.00,7.11,,,
2009-03-22 20:00,2.5,,,2871,1018.27,285.60,5.71,6.42,1.86,1.00,4.30,,,
2009-03-22 21:00,1.6,,,2868,1018.27,334.70,7.15,7.61,2.84,1.00,5.32,,,
2009-03-22 22:00,2.1,,,2965,1018.09,249.20,4.80,5.44,2.33,1.00,3.92,,,
2009-03-22 23:00,1.5,,,2965,1018.58,251.40,7.86,8.48,2.91,1.00,5.75,,,
2009-03-23 00:00,2.5,,,2965,1018.77,298.60,8.57,9.30,3.99,1.00,6.44,,,
2009-03-23 01:00,0.8,,,2965,1019.75,335.10,13.94,15.15,6.64,1.00,11.37,,,
2009-03-23 02:00,-0.3,,,2965,1020.24,332.40,12.84,13.58,6.86,1.00,10.53,,,
2009-03-23 03:00,-0.9,,,2965,1020.73,327.50,13.33,15.14,8.17,1.00,11.57,,,
2009-03-23 04:00,-1.3,,,2965,1021.04,327.10,14.37,15.17,8.86,1.00,12.16,,,
2009-03-23 05:00,-1.9,,,2966,1021.16,331.10,13.76,14.57,7.57,1.00,11.06,,,
2009-03-23 06:00,-2.2,,,2966,1021.23,345.43,12.93,14.26,7.45,1.00,10.67,,,
2009-03-23 07:00,-2.5,,,2966,1021.10,359.83,11.61,12.35,6.76,1.00,9.53,,,
2009-03-23 08:00,-3.4,,,2919,1021.41,340.90,11.15,12.09,6.27,1.00,9.69,,,
2009-03-23 09:00,-4.3,,,2966,1021.66,5.56,11.65,12.75,6.43,1.00,9.82,,,
2009-03-23 10:00,-4.8,,,2966,1022.02,343.83,11.44,12.41,5.93,1.00,8.75,,,
2009-03-23 11:00,-5.5,,,2957,1022.33,343.67,11.78,12.88,5.62,1.00,9.74,,,
2009-03-23 12:00,-6.0,,,2959,1022.46,335.50,11.18,12.57,6.23,1.00,9.34,,,
2009-03-23 13:00,-6.7,,,2967,1022.21,330.00,10.29,11.07,4.82,1.00,8.25,,,
2009-03-23 14:00,-6.6,,,2951,1022.21,337.70,10.95,11.52,4.67,1.00,7.96,,,
2009-03-23 15:00,-6.3,,,2967,1021.84,341.80,10.00,11.25,4.65,1.00,7.86,,,
2009-03-23 16:00,-5.8,,,2967,1021.35,355.52,9.21,10.63,4.78,1.00,7.65,,,
2009-03-23 17:00,-5.5,,,2948,1021.04,350.22,10.21,10.96,5.29,1.00,8.04,,,
2009-03-23 18:00,-4.8,,,2561,1020.67,347.26,10.46,11.69,5.00,1.00,8.27,,,
2009-03-23 19:00,-4.1,,,2967,1020.43,339.20,10.67,12.09,4.25,1.00,8.24,,,
2009-03-23 20:00,-3.4,,,2967,1020.24,346.77,10.70,11.69,6.07,1.00,8.86,,,
2009-03-23 21:00,-2.8,,,2959,1020.43,340.70,11.78,13.05,6.41,1.00,9.99,,,
2009-03-23 22:00,,,,,,,,,,,,,,
2009-03-23 23:00,-2.5,,,2966,1020.92,345.35,12.83,14.49,6.47,1.00,10.41,,,
2009-03-24 00:00,-2.4,,,2966,1021.29,353.71,14.12,14.99,8.17,1.00,11.67,,,
2009-03-24 01:00,-2.9,,,2966,1021.23,347.85,14.87,17.24,8.05,1.00,12.48,,,
2009-03-24 02:00,-2.8,,,2966,1020.61,347.34,14.69,15.54,7.48,1.00,11.61,,,
2009-03-24 03:00,-2.4,,,2937,1020.36,340.00,15.82,17.37,7.34,1.00,12.32,,,
2009-03-24 04:00,-2.2,,,2965,1019.75,344.72,16.38,18.00,9.14,1.00,13.88,,,
2009-03-24 05:00,-2.1,,,2965,1019.26,343.55,17.69,18.83,10.03,1.00,14.35,,,
2009-03-24 06:00,-2.0,,,2960,1018.89,344.93,17.42,19.16,9.19,1.00,13.82,,,
2009-03-24 07:00,-1.3,,,2763,1018.77,357.75,17.06,18.33,9.03,1.00,14.04,,,
2009-03-24 08:00,-1.6,,,2336,1018.64,4.96,17.10,20.40,10.79,1.00,14.52,,,
2009-03-24 09:00,-0.6,,,2959,1018.89,3.42,16.66,19.13,8.27,1.00,13.69,,,
2009-03-24 10:00,-0.6,,,2894,1019.13,5.45,20.23,21.92,9.78,1.00,14.20,,,
2009-03-24 11:00,-1.0,,,2785,1019.81,1.34,17.85,21.22,9.28,1.00,14.96,,,
2009-03-24 12:00,-1.5,14.2,17.7,2456,1020.18,,,,,0.96,,351.60,19.21,9.80
2009-03-24 13:00,-0.6,,,2798,1020.67,5.52,18.66,20.35,9.27,1.00,15.38,,,
2009-03-24 14:00,-0.5,,,2691,1021.53,7.27,17.19,20.06,8.62,1.00,14.45,,,
2009-03-24 15:00,-0.1,,,2538,1021.96,17.29,16.31,19.25,7.66,1.00,13.20,,,
2009-03-24 16:00,0.1,,,2265,1022.89,14.44,17.28,17.61,7.55,1.00,13.26,,,
2009-03-24 17:00,1.7,,,2893,1023.26,26.29,16.68,17.67,6.19,1.00,12.85,,,
2009-03-24 18:00,0.5,,,1914,1024.79,23.40,15.67,17.17,8.18,1.00,13.19,,,
2009-03-24 19:00,1.5,,,2909,1025.04,22.37,14.10,16.26,7.20,1.00,11.54,,,
2009-03-24 20:00,1.8,,,2959,1025.41,14.41,14.35,16.66,7.32,1.00,11.76,,,
2009-03-24 21:00,2.1,,,2880,1026.03,15.15,10.95,11.74,5.87,1.00,9.14,,,
2009-03-24 22:00,3.3,,,2960,1026.09,25.45,11.03,12.26,5.95,1.00,9.08,,,
2009-03-24 23:00,3.3,,,2965,1026.89,15.60,8.69,9.69,4.13,1.00,7.41,,,
2009-03-25 01:00,2.3,,,2965,1027.57,15.96,9.83,10.72,5.50,1.00,8.32,,,
2009-03-25 02:00,2.0,,,2965,1027.69,17.50,13.53,14.24,6.70,1.00,10.81,,,
2009-03-25 03:00,1.3,,,2965,1027.81,15.44,15.84,17.38,9.11,1.00,12.90,,,
2009-03-25 04:00,0.9,,,2965,1027.44,16.17,16.61,17.86,7.11,1.00,12.08,,,
2009-03-25 05:00,0.4,,,2949,1027.38,20.43,14.36,16.00,7.75,1.00,11.72,,,
2009-03-25 06:00,0.1,,,2965,1026.64,21.62,14.24,15.70,7.74,1.00,11.38,,,
2009-03-25 07:00,-0.2,,,2965,1026.46,17.48,14.52,15.42,8.04,1.00,11.73,,,
2009-03-25 08:00,-0.1,,,2965,1026.77,21.74,14.26,15.95,7.29,1.00,11.49,,,
2009-03-25 09:00,-0.2,,,2965,1026.95,19.32,14.07,15.69,7.58,1.00,11.74,,,
2009-03-25 10:00,-0.3,,,2965,1027.50,22.50,12.94,14.21,7.12,1.00,10.86,,,
2009-03-25 11:00,-0.6,,,1769,1027.75,20.58,13.43,14.84,6.63,1.00,10.84,,,
2009-03-25 12:00,-0.6,,,2557,1027.75,10.29,13.59,14.46,6.90,1.00,11.32,,,
2009-03-25 13:00,0.1,,,2927,1027.44,11.55,12.07,12.99,7.25,1.00,10.17,,,
2009-03-25 14:00,0.6,,,2961,1027.07,14.95,11.27,12.30,5.85,1.00,9.33,,,
2009-03-25 15:00,1.4,,,2967,1026.46,16.99,9.51,10.65,5.28,1.00,8.13,,,
2009-03-25 16:00,1.8,,,2967,1025.84,346.15,5.81,6.81,2.71,1.00,4.67,,,
2009-03-25 17:00,2.8,,,2967,1024.98,1.08,3.90,4.62,1.42,1.00,3.08,,,
2009-03-25 18:00,3.5,,,2966,1023.99,5.34,3.38,4.02,1.64,1.00,2.94,,,
2009-03-25 19:00,4.6,,,2842,1023.44,15.96,3.86,4.60,2.04,1.00,3.32,,,
2009-03-25 20:00,4.8,,,2889,1023.01,39.18,2.35,3.44,0.30,1.00,1.86,,,
2009-03-25 21:00,5.0,,,2814,1022.95,120.10,2.29,2.99,0.11,1.00,1.66,,,
2009-03-25 22:00,4.2,,,2910,1022.89,193.50,2.22,3.67,0.11,1.00,1.43,,,
2009-03-25 23:00,4.2,,,2965,1022.70,0.92,2.07,2.66,0.05,1.00,0.94,,,
2009-03-26 00:00,3.8,,,2965,1022.76,335.50,2.40,3.02,0.72,1.00,1.98,,,
2009-03-26 01:00,3.7,,,2965,1023.01,90.70,2.38,3.29,0.11,1.00,1.49,,,
2009-03-26 02:00,3.1,,,2965,1022.82,16.76,2.54,2.86,0.88,1.00,1.94,,,
2009-03-26 03:00,2.7,,,2965,1022.70,347.23,3.09,3.40,0.61,1.00,2.00,,,
2009-03-26 04:00,2.7,,,2965,1022.39,48.52,4.29,5.06,2.16,1.00,3.64,,,
2009-03-26 05:00,2.8,,,2965,1022.82,64.20,4.07,4.64,2.00,1.00,3.34,,,
2009-03-26 06:00,2.4,,,2965,1023.07,343.96,2.43,3.18,0.82,1.00,1.85,,,
2009-03-26 07:00,1.9,,,2965,1022.82,332.30,3.08,3.82,0.98,1.00,2.40,,,
2009-03-26 08:00,1.9,,,2965,1022.58,336.60,2.85,3.46,1.18,1.00,2.21,,,
2009-03-26 09:00,1.6,,,2965,1022.27,15.91,3.87,4.21,2.20,1.00,3.28,,,
2009-03-26 10:00,1.1,,,2965,1022.33,37.64,4.90,5.46,2.86,1.00,4.12,,,
2009-03-26 11:00,0.9,,,2340,1021.78,41.51,4.18,4.56,2.05,1.00,3.43,,,
2009-03-26 12:00,0.7,,,2101,1021.96,16.10,5.50,6.02,3.34,1.00,4.64,,,
2009-03-26 13:00,0.3,,,2757,1021.90,14.92,6.05,6.41,3.61,1.00,4.92,,,
2009-03-26 14:00,0.5,,,2954,1020.67,34.21,6.22,6.76,3.46,1.00,5.19,,,
2009-03-26 15:00,0.9,,,2966,1020.18,34.32,5.52,6.68,2.51,1.00,4.56,,,
2009-03-26 16:00,1.3,,,2966,1020.98,46.63,2.84,3.80,1.25,1.00,2.27,,,
2009-03-26 17:00,2.2,,,2966,1021.23,133.20,1.66,2.42,0.05,1.00,0.82,,,
2009-03-26 18:00,2.0,,,2966,1020.30,165.00,2.37,2.69,1.15,1.00,1.96,,,
2009-03-26 19:00,2.4,,,2966,1018.52,155.20,4.15,4.68,2.46,1.00,3.46,,,
2009-03-26 20:00,2.8,,,2966,1017.97,192.20,4.15,4.49,2.45,1.00,3.58,,,
2009-03-26 21:00,2.9,,,2843,1017.23,184.80,4.01,4.16,2.14,1.00,3.30,,,
2009-03-26 22:00,3.3,,,2966,1017.48,223.90,4.03,4.51,2.31,1.00,3.37,,,
2009-03-26 23:00,3.1,,,2965,1016.68,211.30,2.79,3.22,1.65,1.00,2.46,,,
2009-03-27 00:00,3.0,,,2965,1016.98,249.60,6.41,6.82,3.23,1.00,5.09,,,
2009-03-27 01:00,2.9,,,2965,1016.62,251.50,3.83,4.23,1.88,1.00,3.02,,,
2009-03-27 02:00,2.9,,,2965,1016.55,238.70,3.98,4.33,2.05,1.00,3.42,,,
2009-03-27 03:00,2.9,,,2965,1015.57,246.60,2.82,3.25,1.36,1.00,2.29,,,
2009-03-27 04:00,2.9,,,2965,1015.20,227.10,2.05,2.48,0.79,1.00,1.51,,,
2009-03-27 05:00,3.0,,,2965,1014.90,225.00,1.23,1.48,0.30,1.00,0.97,,,
2009-03-27 06:00,2.9,,,2965,1014.22,157.30,1.37,1.90,0.66,1.00,1.19,,,
2009-03-27 07:00,2.7,,,2965,1013.49,148.00,1.59,2.04,0.65,1.00,1.21,,,
2009-03-27 08:00,2.7,,,2916,1013.42,182.90,1.04,1.41,0.14,1.00,0.68,,,
2009-03-27 09:00,2.0,,,2965,1013.30,190.80,1.59,1.84,0.24,1.00,1.15,,,
2009-03-27 10:00,2.1,,,2965,1013.36,162.10,2.91,3.54,1.57,1.00,2.53,,,
2009-03-27 11:00,2.0,,,2965,1013.12,140.60,3.99,4.37,2.64,1.00,3.48,,,
2009-03-27 12:00,,,,,,,,,,,,,,
2009-03-27 13:00,2.7,,,2965,1014.22,141.60,2.60,3.07,1.42,1.00,2.25,,,
2009-03-27 14:00,2.7,,,2966,1013.91,145.60,4.24,4.59,2.02,1.00,3.54,,,
2009-03-27 15:00,2.5,,,2966,1014.28,171.40,4.76,5.09,3.22,1.00,4.22,,,
2009-03-27 16:00,2.4,,,2967,1014.16,175.80,4.38,4.83,2.09,1.00,3.61,,,
2009-03-27 17:00,2.6,,,2966,1014.28,190.90,3.35,3.92,1.67,1.00,2.79,,,
2009-03-27 18:00,,,,,,,,,,,,,,
2009-03-27 19:00,2.9,,,2966,1014.10,230.60,3.15,3.67,1.71,1.00,2.65,,,
2009-03-27 20:00,3.1,,,2966,1014.96,245.60,4.11,4.57,2.07,1.00,3.22,,,
2009-03-27 21:00,3.0,,,2966,1015.26,229.20,4.94,5.09,2.40,1.00,3.49,,,
2009-03-27 22:00,3.0,,,2966,1015.88,248.60,5.42,6.08,3.21,1.00,4.47,,,
2009-03-27 23:00,2.8,,,2965,1016.06,253.10,3.95,4.40,2.09,1.00,3.15,,,
2009-03-28 00:00,2.7,,,2965,1016.37,251.40,4.17,4.39,0.93,1.00,2.77,,,
2009-03-28 01:00,1.8,,,2524,1016.49,278.50,4.08,4.50,1.89,1.00,3.17,,,
2009-03-28 02:00,1.0,,, 700,1017.11,312.40,3.92,4.18,2.37,1.00,3.25,,,
2009-03-28 03:00,1.2,,, 400,1017.11,295.60,4.96,5.36,2.92,1.00,4.14,,,
2009-03-28 04:00,1.1,,, 211,1017.41,274.30,5.71,6.13,2.98,1.00,4.52,,,
2009-03-28 05:00,0.8,,, 235,1017.84,260.00,4.82,5.38,2.21,1.00,3.62,,,
2009-03-28 06:00,0.9,,, 229,1017.72,267.40,5.49,5.97,3.03,1.00,4.48,,,
2009-03-28 07:00,0.9,,, 274,1018.21,263.90,6.63,7.46,3.63,1.00,5.62,,,
2009-03-28 08:00,0.9,,, 308,1018.40,266.30,7.82,8.43,4.82,1.00,6.53,,,
2009-03-28 09:00,0.6,,, 329,1018.83,267.00,6.21,7.03,3.30,1.00,5.06,,,
2009-03-28 10:00,0.8,,, 197,1018.89,267.00,3.62,4.19,0.78,1.00,2.54,,,
2009-03-28 11:00,0.0,,, 244,1018.83,286.30,1.27,1.75,0.03,1.00,0.77,,,
2009-03-28 12:00,0.2,,, 476,1018.89,241.60,3.45,3.90,1.30,1.00,2.63,,,
2009-03-28 13:00,0.3,,,1773,1019.01,270.30,2.21,2.52,0.91,1.00,1.75,,,
2009-03-28 14:00,0.4,,,1979,1019.26,219.70,4.03,4.50,1.86,1.00,3.08,,,
2009-03-28 15:00,1.0,,,2061,1019.26,225.20,5.31,6.07,3.03,1.00,4.47,,,
2009-03-28 16:00,2.1,,,2842,1019.07,243.00,4.16,4.72,2.09,1.00,3.59,,,
2009-03-28 17:00,2.3,,, 741,1018.58,248.30,2.97,3.24,0.41,1.00,2.01,,,
2009-03-28 18:00,2.5,,,2966,1018.64,221.60,5.47,5.89,2.77,1.00,4.32,,,
2009-03-28 19:00,2.8,,,2966,1018.40,225.90,3.09,4.17,1.44,1.00,2.69,,,
2009-03-28 20:00,3.1,,,2966,1018.03,215.00,4.89,5.42,2.02,1.00,3.70,,,
2009-03-28 21:00,2.9,,,2966,1017.48,215.30,5.76,6.24,2.86,1.00,4.51,,,
2009-03-28 22:00,2.6,,,1480,1017.60,219.40,4.03,4.66,1.83,1.00,3.28,,,
2009-03-28 23:00,2.3,,, 261,1017.54,223.00,6.41,6.91,2.33,1.00,4.33,,,
2009-03-29 00:00,2.1,,, 318,1017.84,228.00,5.83,6.68,3.30,1.00,4.72,,,
2009-03-29 01:00,1.4,,, 610,1017.66,243.50,5.67,6.66,3.06,1.00,4.93,,,
2009-03-29 02:00,1.4,,, 613,1016.98,247.00,4.27,4.78,1.51,1.00,3.06,,,
2009-03-29 03:00,1.0,,, 421,1016.06,221.20,3.43,3.99,0.30,1.00,2.00,,,
2009-03-29 04:00,1.0,,, 265,1015.94,252.80,2.17,2.66,0.56,1.00,1.63,,,
2009-03-29 05:00,0.8,,, 340,1015.33,134.50,2.42,2.87,0.79,1.00,1.97,,,
2009-03-29 06:00,0.7,,, 496,1014.84,151.50,3.61,4.00,1.47,1.00,2.78,,,
2009-03-29 07:00,0.8,,, 655,1014.41,103.20,3.46,3.78,1.27,1.00,2.63,,,
2009-03-29 08:00,0.8,,, 808,1014.65,134.30,4.07,4.77,0.00,1.00,2.41,,,
2009-03-29 09:00,0.9,,, 544,1013.98,77.90,3.67,4.14,1.81,1.00,2.79,,,
2009-03-29 10:00,0.7,,, 989,1013.67,77.30,4.62,5.04,2.69,1.00,3.82,,,
2009-03-29 11:00,1.0,,, 573,1013.24,73.30,5.10,5.47,3.06,1.00,4.36,,,
2009-03-29 12:00,1.2,,, 818,1013.18,64.80,5.87,6.32,3.27,1.00,4.87,,,
2009-03-29 13:00,1.2,,,1686,1011.95,71.50,7.79,8.29,4.03,1.00,6.22,,,
2009-03-29 14:00,1.4,,,2029,1010.91,74.30,10.06,11.08,5.84,1.00,8.36,,,
2009-03-29 15:00,1.6,,,2967,1010.17,74.00,9.07,9.59,4.89,1.00,7.68,,,
2009-03-29 16:00,1.9,,,2966,1009.07,75.10,7.77,8.93,4.89,1.00,6.77,,,
2009-03-29 17:00,3.0,,,2965,1008.15,68.40,8.74,10.01,5.05,1.00,7.20,,,
2009-03-29 18:00,3.4,,,2963,1006.99,66.40,8.89,9.39,5.17,1.00,7.05,,,
2009-03-29 19:00,3.8,,,2831,1005.46,77.60,10.51,11.70,6.68,1.00,9.01,,,
2009-03-29 20:00,3.9,,,2965,1004.66,78.60,11.96,12.35,5.92,1.00,9.26,,,
2009-03-29 21:00,3.8,,,2522,1003.80,72.80,11.25,12.25,6.33,1.00,9.63,,,
2009-03-29 22:00,3.9,,,2679,1002.95,65.20,13.04,13.51,7.34,1.00,10.05,,,
2009-03-29 23:00,4.4,,,1199,1001.79,78.60,12.28,13.51,6.71,1.00,10.38,,,
2009-03-30 00:00,4.8,,,2420,1000.14,83.10,14.43,16.03,7.99,1.00,11.87,,,
2009-03-30 01:00,4.6,,,2851,999.77,78.40,13.28,14.45,7.02,1.00,10.75,,,
2009-03-30 02:00,4.5,,,2045,999.10,85.50,12.19,13.63,6.62,1.00,10.20,,,
2009-03-30 03:00,4.6,,,2192,998.30,88.20,11.83,12.79,5.36,1.00,9.43,,,
2009-03-30 04:00,4.9,,,1680,996.84,86.40,13.50,14.45,6.01,1.00,10.20,,,
2009-03-30 05:00,4.9,,,2853,996.65,93.00,10.84,11.70,5.46,1.00,8.73,,,
2009-03-30 06:00,4.8,,,1314,996.47,63.10,7.43,8.70,2.82,1.00,5.53,,,
2009-03-30 07:00,4.2,,,2313,994.52,63.10,11.53,12.90,6.64,1.00,9.93,,,
2009-03-30 08:00,4.1,,,2852,992.26,74.80,14.19,15.76,7.66,1.00,11.51,,,
2009-03-30 09:00,4.0,,,2439,992.81,66.20,11.36,12.64,6.25,1.00,9.49,,,
2009-03-30 10:00,,,,,,,,,,,,,,
2009-03-30 11:00,4.1,,,2136,992.75,58.10,11.00,12.46,5.90,1.00,9.21,,,
2009-03-30 13:00,3.2,,,1621,992.69,51.32,13.17,14.79,5.27,1.00,11.60,,,
2009-03-30 14:00,3.2,,,1713,991.77,45.26,14.57,15.98,6.71,1.00,11.10,,,
2009-03-30 15:00,2.9,,,1805,992.20,43.78,14.64,15.37,7.52,1.00,11.50,,,
2009-03-30 16:00,2.7,,,1396,992.26,43.53,14.30,15.55,7.32,1.00,11.43,,,
2009-03-30 17:00,2.6,,,1099,992.87,35.67,15.27,16.42,7.56,1.00,11.50,,,
2009-03-30 18:00,2.6,,,1805,992.99,30.31,13.13,15.20,6.97,1.00,10.56,,,
2009-03-30 19:00,2.7,,,2419,994.09,24.60,11.28,13.12,6.48,1.00,9.86,,,
2009-03-30 20:00,2.6,,,2001,994.88,26.97,11.45,12.69,4.72,1.00,9.35,,,
2009-03-30 21:00,2.5,,,2511,996.04,12.35,11.01,13.14,5.19,1.00,9.11,,,
2009-03-30 22:00,2.4,,,2915,997.69,12.52,11.22,12.57,5.51,1.00,9.30,,,
2009-03-30 23:00,1.4,,,2677,999.95,1.00,10.70,12.01,5.00,1.00,8.59,,,
2009-03-31 00:00,1.9,,,2902,1001.42,358.49,13.01,14.19,6.31,1.00,9.58,,,
2009-03-31 01:00,1.4,,,2965,1002.89,0.02,12.54,13.04,6.04,1.00,9.78,,,
2009-03-31 02:00,1.3,,,2965,1003.80,355.50,11.02,12.15,5.70,1.00,9.32,,,
2009-03-31 03:00,1.2,,,2965,1005.03,4.28,12.84,14.51,7.58,1.00,10.81,,,
2009-03-31 04:00,1.0,,,2965,1005.95,357.74,12.61,13.54,7.27,1.00,10.50,,,
2009-03-31 05:00,1.0,,,2965,1006.50,2.46,12.27,13.07,6.10,1.00,9.79,,,
2009-03-31 06:00,0.5,,,2965,1007.42,4.70,12.18,14.45,6.42,1.00,9.97,,,
2009-03-31 07:00,0.5,,,2965,1008.76,359.76,12.57,13.67,5.76,1.00,10.47,,,
2009-03-31 08:00,0.5,,,2965,1009.81,353.88,12.99,14.12,6.71,1.00,10.67,,,
2009-03-31 09:00,0.4,,,2965,1011.09,349.09,13.24,14.16,6.07,1.00,10.59,,,
2009-03-31 10:00,0.4,,,2965,1012.69,345.60,14.26,15.31,7.62,1.00,11.43,,,
2009-03-31 11:00,0.4,,,2965,1014.10,349.51,14.50,15.34,7.44,1.00,11.99,,,
2009-03-31 12:00,0.4,,,2966,1015.33,354.33,13.51,15.04,6.48,1.00,10.88,,,
2009-03-31 13:00,0.9,,,2967,1016.19,356.13,12.11,13.49,6.93,1.00,10.37,,,
2009-03-31 14:00,1.8,,,2967,1017.35,352.79,11.96,13.30,6.16,1.00,9.53,,,
2009-03-31 15:00,2.2,,,2967,1017.97,352.68,10.88,11.73,5.54,1.00,9.06,,,
2009-03-31 16:00,2.5,,,2966,1018.40,351.00,8.78,9.81,5.07,1.00,7.45,,,
2009-03-31 17:00,3.2,,,2966,1019.13,18.10,6.73,7.47,2.92,1.00,5.34,,,
2009-03-31 18:00,3.5,,,2966,1019.38,20.40,10.18,10.71,3.89,1.00,6.89,,,
2009-03-31 19:00,3.8,,,2966,1020.24,4.85,5.29,5.94,2.47,1.00,4.39,,,
2009-03-31 20:00,4.2,,,2770,1020.92,32.70,6.64,7.73,3.57,1.00,5.50,,,
2009-03-31 21:00,4.3,,,1743,1021.90,42.85,6.01,6.97,3.59,1.00,5.30,,,
2009-03-31 22:00,3.7,,,2852,1022.82,67.00,6.22,7.42,2.74,1.00,5.30,,,
2009-03-31 23:00,3.6,,,2965,1023.56,59.70,5.64,6.42,1.81,1.00,3.95,,,
2009-04-01 00:00,3.1,,,2965,1024.06,72.00,7.93,9.00,5.16,1.00,6.97,,,
2009-04-01 01:00,2.2,,,2965,1024.86,72.90,8.56,9.36,4.18,1.00,6.86,,,
2009-04-01 02:00,2.3,,,2965,1024.98,68.70,9.00,9.54,3.91,1.00,7.31,,,
2009-04-01 03:00,1.9,,,2965,1025.04,71.50,8.76,9.83,5.07,1.00,7.42,,,
2009-04-01 04:00,2.0,,,2965,1025.23,79.50,7.82,8.71,3.84,1.00,6.28,,,
2009-04-01 05:00,2.1,,,2965,1025.47,85.30,7.34,8.46,3.64,1.00,5.87,,,
2009-04-01 06:00,1.7,,,2965,1025.35,75.40,5.99,7.02,3.25,1.00,5.11,,,
2009-04-01 07:00,1.6,,,2965,1025.35,62.20,5.77,6.75,3.42,1.00,4.96,,,
2009-04-01 08:00,1.2,,,2965,1025.96,36.29,3.22,3.99,1.49,1.00,2.73,,,
2009-04-01 09:00,1.4,,,2965,1026.09,36.49,3.26,3.90,1.05,1.00,2.46,,,
2009-04-01 10:00,1.3,,,2965,1026.03,74.10,4.19,4.83,1.30,1.00,2.98,,,
2009-04-01 11:00,1.7,,,2966,1026.27,73.10,3.18,3.65,1.03,1.00,2.40,,,
2009-04-01 12:00,2.3,,,2967,1026.46,65.80,3.42,3.67,0.85,1.00,2.36,,,
2009-04-01 13:00,3.1,,,2967,1027.20,106.50,1.79,2.23,0.07,1.00,1.01,,,
2009-04-01 14:00,2.7,,,2966,1027.20,145.80,2.02,2.29,0.14,1.00,1.21,,,
2009-04-01 15:00,2.6,,,2966,1026.95,160.90,1.90,2.20,0.29,1.00,1.40,,,
2009-04-01 16:00,2.2,,,2966,1026.15,165.80,2.85,3.10,0.96,1.00,2.05,,,
2009-04-01 17:00,2.1,,,2966,1026.09,175.10,3.25,3.52,1.40,1.00,2.43,,,
2009-04-01 18:00,2.5,,,2966,1025.10,178.30,2.94,3.16,1.30,1.00,2.17,,,
2009-04-01 19:00,2.5,,,2966,1024.86,198.30,4.75,5.33,2.29,1.00,3.75,,,
2009-04-01 20:00,2.3,,,2966,1024.18,200.00,5.34,5.57,2.75,1.00,4.26,,,
2009-04-01 21:00,2.3,,,2966,1023.44,183.40,5.97,6.72,3.39,1.00,4.90,,,
2009-04-01 22:00,2.2,,,2965,1023.13,183.10,6.59,7.61,3.35,1.00,5.69,,,
2009-04-01 23:00,1.7,,,2965,1022.76,194.60,7.09,7.81,3.80,1.00,6.06,,,
2009-04-02 00:00,2.7,,,2965,1022.64,206.80,7.33,7.98,4.02,1.00,6.11,,,
2009-04-02 01:00,2.9,,,2965,1022.09,186.50,7.66,8.45,3.93,1.00,6.24,,,
2009-04-02 02:00,3.1,,,2965,1021.72,186.10,8.21,9.76,3.81,1.00,6.92,,,
2009-04-02 03:00,2.8,,,2965,1021.78,193.70,9.51,10.65,5.44,1.00,8.11,,,
2009-04-02 04:00,2.8,,,2965,1021.16,195.70,9.39,10.38,4.93,1.00,7.57,,,
2009-04-02 05:00,2.7,,,2526,1020.49,192.40,8.59,9.55,4.73,1.00,6.94,,,
2009-04-02 07:00,2.8,,,2965,1019.44,186.70,7.72,8.29,3.68,1.00,5.86,,,
2009-04-02 08:00,3.7,,,2927,1018.77,186.40,7.58,8.45,4.41,1.00,6.50,,,
2009-04-02 09:00,3.9,,,2489,1018.77,191.00,6.59,7.32,3.66,1.00,5.53,,,
2009-04-02 10:00,3.4,,,1878,1019.20,259.90,4.16,5.25,0.72,1.00,2.38,,,
2009-04-02 11:00,3.1,,,2159,1019.20,216.60,1.93,2.71,0.23,1.00,1.65,,,
2009-04-02 12:00,3.5,,,2965,1019.26,159.00,3.24,4.39,1.03,1.00,2.46,,,
2009-04-02 13:00,3.8,,,2966,1019.07,166.20,3.95,4.52,1.56,1.00,3.38,,,
2009-04-02 14:00,4.0,,,2966,1019.07,173.70,3.12,3.80,1.31,1.00,2.56,,,
2009-04-02 15:00,4.1,,,2966,1019.01,222.70,3.34,3.99,1.74,1.00,2.87,,,
2009-04-02 16:00,4.1,,,2966,1018.09,208.10,3.26,3.87,1.12,1.00,2.58,,,
2009-04-02 17:00,4.0,,,2966,1017.84,231.90,3.91,4.52,1.89,1.00,3.15,,,
2009-04-02 18:00,3.8,,,1141,1017.41,236.10,4.45,5.54,2.37,1.00,3.34,,,
2009-04-02 19:00,3.5,,, 710,1016.92,254.10,4.69,4.98,2.28,1.00,3.82,,,
2009-04-02 20:00,3.4,,, 979,1016.55,239.40,5.68,6.30,2.91,1.00,4.49,,,
2009-04-02 21:00,3.2,,, 613,1016.37,240.00,5.67,6.31,3.25,1.00,4.84,,,
2009-04-02 22:00,3.0,,, 614,1016.37,241.30,5.42,6.16,3.10,1.00,4.65,,,
2009-04-02 23:00,3.4,,, 202,1017.23,235.60,4.65,5.15,2.58,1.00,3.85,,,
2009-04-03 00:00,3.4,,, 315,1017.72,227.20,4.46,5.07,2.67,1.00,3.92,,,
2009-04-03 01:00,3.5,,, 137,1017.54,220.20,2.74,3.23,1.00,1.00,2.34,,,
2009-04-03 02:00,3.1,,, 208,1017.72,117.00,0.81,1.45,0.00,1.00,0.58,,,
2009-04-03 03:00,3.8,,, 763,1017.05,49.30,2.09,2.56,0.01,1.00,1.05,,,
2009-04-03 04:00,,,,,,,,,,,,,,
2009-04-03 05:00,3.9,,, 459,1016.86,77.50,2.46,2.96,1.30,1.00,2.07,,,
2009-04-03 06:00,4.3,,, 673,1016.37,118.30,2.40,2.73,1.21,1.00,2.06,,,
2009-04-03 07:00,4.5,,, 186,1015.39,79.60,1.66,2.09,1.04,1.00,1.52,,,
2009-04-03 08:00,4.4,,, 204,1015.20,88.20,1.38,1.69,0.04,1.00,0.78,,,
2009-04-03 09:00,4.7,,, 148,1014.90,113.30,1.70,2.01,0.36,1.00,1.22,,,
2009-04-03 10:00,3.7,,, 367,1014.65,130.70,4.03,4.46,2.12,1.00,3.45,,,
2009-04-03 11:00,3.3,,, 348,1013.73,111.20,5.17,5.94,3.30,1.00,4.56,,,
2009-04-03 12:00,4.0,,,1634,1013.36,100.40,5.07,5.56,3.31,1.00,4.41,,,
2009-04-03 13:00,4.1,,,2219,1012.50,96.20,5.53,6.30,3.59,1.00,4.80,,,
2009-04-03 14:00,4.1,,,1681,1012.56,91.40,4.52,5.04,2.59,1.00,3.87,,,
2009-04-03 15:00,4.1,,,1530,1011.64,99.00,7.96,8.68,4.29,1.00,6.73,,,
2009-04-03 16:00,3.9,,,1948,1010.23,81.50,6.33,7.27,3.86,1.00,5.54,,,
2009-04-03 17:00,4.4,,,2135,1008.70,77.20,7.06,8.52,4.06,1.00,6.37,,,
2009-04-03 18:00,4.9,,, 663,1006.74,84.00,8.51,9.43,4.24,1.00,6.54,,,
2009-04-03 19:00,5.8,,,2261,1004.54,100.50,10.72,11.50,6.30,1.00,8.93,,,
2009-04-03 20:00,6.6,,,1224,1000.69,90.20,13.55,14.78,7.00,1.00,10.25,,,
2009-04-03 21:00,7.0,,,2554,998.42,109.40,14.21,15.16,7.19,1.00,11.63,,,
2009-04-03 22:00,6.8,,, 656,996.71,122.90,14.03,15.72,7.85,1.00,11.31,,,
2009-04-03 23:00,6.5,,,1012,995.31,126.30,10.45,11.63,5.24,1.00,8.55,,,
2009-04-04 00:00,6.3,,,2003,994.52,150.90,10.47,12.17,5.85,1.00,8.60,,,
2009-04-04 01:00,,,,,,,,,,,,,,
2009-04-04 02:00,6.8,,,1116,991.95,151.70,11.56,13.23,6.59,1.00,9.83,,,
2009-04-04 03:00,6.8,,, 686,990.73,155.10,10.33,12.20,5.78,1.00,9.12,,,
2009-04-04 04:00,6.5,,, 515,990.06,158.10,10.02,11.29,2.67,1.00,8.37,,,
2009-04-04 05:00,6.4,,, 400,989.27,165.20,9.25,11.18,4.54,1.00,7.76,,,
2009-04-04 06:00,6.1,,, 532,988.72,176.10,8.87,10.12,4.07,1.00,6.93,,,
2009-04-04 07:00,5.9,,, 646,988.78,188.30,8.58,10.10,4.42,1.00,7.54,,,
2009-04-04 09:00,5.0,,, 770,989.09,192.60,7.55,8.87,3.76,1.00,6.62,,,
2009-04-04 10:00,4.7,,, 601,988.97,184.70,8.51,10.05,4.40,1.00,7.04,,,
2009-04-04 11:00,4.5,,,1623,989.39,180.80,6.05,7.40,2.52,1.00,4.85,,,
2009-04-04 12:00,5.2,,,2947,989.52,176.50,7.39,8.67,3.33,1.00,5.95,,,
2009-04-04 13:00,5.2,,,2915,989.82,179.00,7.36,8.59,3.61,1.00,6.38,,,
2009-04-04 14:00,5.2,,,2966,989.88,176.90,7.48,8.66,3.39,1.00,6.26,,,
2009-04-04 15:00,5.2,,,2966,989.64,182.80,7.94,9.49,4.48,1.00,6.71,,,
2009-04-04 16:00,,,,,,,,,,,,,,
2009-04-04 17:00,4.9,,,2966,989.39,189.10,9.62,10.63,5.07,1.00,7.97,,,
2009-04-04 18:00,,,,,,,,,,,,,,
2009-04-04 19:00,4.7,,,2966,989.09,191.80,9.51,10.51,4.65,1.00,7.72,,,
2009-04-04 20:00,4.9,,,2966,988.91,193.40,9.67,10.72,5.13,1.00,8.02,,,
2009-04-04 21:00,5.0,,,2949,988.91,197.90,9.12,10.29,5.16,1.00,7.78,,,
2009-04-04 22:00,4.9,,,2965,989.09,193.90,8.53,9.55,4.30,1.00,6.93,,,
2009-04-04 23:00,4.9,,,2965,989.15,194.10,8.32,9.48,4.08,1.00,7.11,,,
2009-04-05 00:00,4.8,,,2965,989.52,203.50,8.78,9.53,4.29,1.00,6.97,,,
2009-04-05 01:00,4.4,,,2965,989.70,234.30,8.81,10.06,4.34,1.00,7.34,,,
2009-04-05 02:00,4.0,,,2557,989.94,236.10,10.31,11.12,4.73,1.00,8.39,,,
2009-04-05 03:00,3.0,,,2679,989.88,252.40,9.09,10.25,4.82,1.00,7.43,,,
2009-04-05 04:00,3.7,,,2965,990.43,254.90,7.34,8.30,3.96,1.00,6.15,,,
2009-04-05 05:00,4.3,,,2965,991.16,259.60,8.78,9.75,4.25,1.00,6.79,,,
2009-04-05 06:00,4.3,,,2965,991.65,280.60,7.79,8.61,3.55,1.00,6.25,,,
2009-04-05 07:00,3.7,,,2965,992.32,264.90,7.64,9.10,4.34,1.00,6.68,,,
2009-04-05 08:00,3.9,,,2965,992.87,260.80,7.17,8.46,3.76,1.00,6.23,,,
2009-04-05 09:00,3.8,,,2965,993.42,255.70,7.60,8.49,3.45,1.00,6.01,,,
2009-04-05 10:00,3.1,,,2965,994.27,256.20,7.04,7.91,3.45,1.00,5.82,,,
2009-04-05 11:00,2.8,,,2965,995.00,254.00,6.43,7.61,3.70,1.00,5.71,,,
2009-04-05 12:00,3.0,,,2965,995.86,252.90,6.01,7.55,2.76,1.00,4.84,,,
2009-04-05 13:00,3.7,,,2965,996.47,252.80,6.75,7.68,3.35,1.00,5.48,,,